Weather Roundup
Issued by NWS Springfield, MO

Home | Current Version | Previous Version | Text Only | Print | Product List | Glossary On
Versions: 1 2 3 4 5 6 7 8 9 10 11 12 13 14 15 16 17 18 19 20 21 22 23 24 25 26 27 28 29 30 31 32 33 34 35 36 37 38 39 40 41 42 43 44 45 46 47 48 49 50
000
NZUS99 KSGF 310157
HRRSGF

HOURLY WEATHER
NATIONAL WEATHER SERVICE SPRINGFIELD MO
900 PM CDT SAT JUL 30 2016

......SGF CWA......

CITY           SKY/WX    TMP DP  RH WIND       PRES   REMARKS
SPRINGFIELD    PTCLDY    79  68  69 E5        29.97S
JOPLIN         CLEAR     79  70  74 SE5       29.96R
WEST PLAINS    PTCLDY    77  72  84 W3        30.00S
ROLLA          CLEAR     74  67  78 CALM      29.97S
BRANSON        MOCLDY    75  72  88 CALM      29.99F

......SURROUNDING SGF CWA......

CITY           SKY/WX    TMP DP  RH WIND       PRES   REMARKS
CHANUTE        CLEAR     78  71  79 SE5       29.94R
PARSONS        CLEAR     79  72  79 MISG      29.96R
COFFEYVILLE    CLEAR     79  71  76 S6        29.94R
EMPORIA        PTCLDY    77  70  79 SE6       29.94R
HARRISON AR    CLOUDY    71  69  93 CALM      29.99S

......KANSAS AND MISSOURI......

CITY           SKY/WX    TMP DP  RH WIND       PRES   REMARKS
KANSAS CTY INT CLEAR     79  65  62 E8        29.96R
SEDALIA        CLEAR     76  67  73 E3        29.99R
ST JOSEPH      CLEAR     77  65  66 SE6       29.94F
ST LOUIS       PTCLDY    79  66  64 N5        29.96S
WICHITA        CLEAR     83  71  67 SE9       29.91S
TOPEKA         CLEAR     77  70  79 E5        29.94S
OLATHE         CLEAR     77  67  71 E8        29.96S

......TENNESSEE......

CITY           SKY/WX    TMP DP  RH WIND       PRES   REMARKS
MEMPHIS        NOT AVBL
NASHVILLE      PTCLDY    82  70  66 CALM      29.99R

......ARKANSAS.......

CITY           SKY/WX    TMP DP  RH WIND       PRES   REMARKS
FAYETTEVILLE   CLOUDY    75  73  93 SW6       29.98R
FT SMITH       PTCLDY    79  67  66 E6        29.95R
LITTLE ROCK    CLOUDY    74  71  91 S7        29.99R

......OKLAHOMA.......

CITY           SKY/WX    TMP DP  RH WIND       PRES   REMARKS
TULSA          PTCLDY    79  72  79 E5        29.92R
PONCA CITY     CLEAR     81  71  71 SE8       29.91R
MCALESTER      PTCLDY    80  72  76 E5        29.93R
OKLAHOMA CITY  CLOUDY    84  75  74 SE12      29.90S HX  92

......IOWA............

CITY           SKY/WX    TMP DP  RH WIND       PRES   REMARKS
DES MOINES     NOT AVBL
QUAD CITIES    MOCLDY    73  68  84 CALM      29.96R

......ILLINOIS........

CITY           SKY/WX    TMP DP  RH WIND       PRES   REMARKS
QUINCY         NOT AVBL
CHICAGO        MOCLDY    71  64  78 NE8       29.99S




USA.gov is the U.S. government's official web portal to all federal, state and local government web resources and services.